Location: Ottobeuren
(47.9410°N, 10.3007°E)
Time: 09:47:54
(UTC+01:00)

BlueWalker 3 - Pass Details

Date: 08 December 2025
Orbit: 451 x 463 km, 53.2° (Epoch: 18 January)

Event Time Altitude Azimuth Distance (km) Brightness Sun altitude
Rises 19:02:16 0° 286° (WNW) 2,497 6.6 -25.1°
Reaches altitude 10° 19:05:19 10° 259° (W) 1,617 5.5 -25.6°
Maximum altitude 19:07:07 13° 229° (SW) 1,422 4.9 -25.9°
Drops below altitude 10° 19:08:55 10° 199° (SSW) 1,612 4.8 -26.2°
Enters shadow 19:09:29 - 192° (SSW) 1,740 4.9 -26.3°
